OHP548 UUMU-UUMU

Flight info

Callsign OHP548
Flight time N/A
Altitude 1500
Route 5555N03759E 5558N03803E 5552N03812E
Aircraft MI17/M-SDFGRZ/C

Departure

Time 2026-04-19 13:43
Airport Chkalovskiy Air Base (UUMU)

Arrival

Time N/A
Airport Chkalovskiy Air Base (UUMU)
Time Latitude Longitude Altitude Speed Heading
2026-04-19 13:14 55.89366 38.04521 502 ft 0 kts 17°
2026-04-19 13:28 55.89366 38.04522 505 ft 0 kts
2026-04-19 13:29 55.89367 38.04520 505 ft 1 kts 322°
2026-04-19 13:30 55.89361 38.04520 505 ft 1 kts 156°
2026-04-19 13:30 55.89341 38.04552 502 ft 11 kts 136°
2026-04-19 13:30 55.89180 38.04839 505 ft 17 kts 128°
2026-04-19 13:31 55.89133 38.04877 502 ft 0 kts 221°
2026-04-19 13:31 55.89123 38.04862 502 ft 5 kts 217°
2026-04-19 13:31 55.89060 38.04794 502 ft 14 kts 230°
2026-04-19 13:31 55.89041 38.04759 502 ft 3 kts 223°
2026-04-19 13:32 55.89003 38.04686 502 ft 14 kts 225°
2026-04-19 13:32 55.88916 38.04551 502 ft 15 kts 207°
2026-04-19 13:32 55.88830 38.04664 500 ft 20 kts 128°
2026-04-19 13:32 55.88720 38.04897 502 ft 29 kts 131°
2026-04-19 13:33 55.88574 38.05198 501 ft 34 kts 126°
2026-04-19 13:33 55.88432 38.05507 500 ft 32 kts 128°
2026-04-19 13:33 55.88278 38.05827 501 ft 36 kts 130°
2026-04-19 13:33 55.88100 38.06176 501 ft 40 kts 130°
2026-04-19 13:34 55.87919 38.06558 496 ft 41 kts 129°
2026-04-19 13:34 55.87723 38.06912 501 ft 40 kts 143°
2026-04-19 13:34 55.87544 38.07221 495 ft 33 kts 127°
2026-04-19 13:34 55.87392 38.07364 489 ft 21 kts 186°
2026-04-19 13:35 55.87331 38.07356 489 ft 0 kts 185°
2026-04-19 13:37 55.87330 38.07356 489 ft 0 kts 172°
2026-04-19 13:37 55.87332 38.07357 495 ft 3 kts 311°
2026-04-19 13:38 55.87289 38.07344 492 ft 13 kts 183°
2026-04-19 13:38 55.87228 38.07283 492 ft 19 kts 249°
2026-04-19 13:38 55.87295 38.07071 494 ft 0 kts 310°
2026-04-19 13:41 55.87295 38.07072 494 ft 0 kts 303°
2026-04-19 13:41 55.87295 38.07073 494 ft 0 kts 307°
2026-04-19 13:42 55.87308 38.07040 495 ft 8 kts 314°
2026-04-19 13:42 55.87387 38.06869 523 ft 33 kts 309°
2026-04-19 13:42 55.87567 38.06455 586 ft 44 kts 308°
2026-04-19 13:42 55.87764 38.06016 658 ft 54 kts 308°
2026-04-19 13:43 55.87963 38.05630 810 ft 72 kts 306°
2026-04-19 13:43 55.88333 38.04827 982 ft 95 kts 306°
2026-04-19 13:43 55.88933 38.03433 1272 ft 113 kts 305°
2026-04-19 13:43 55.89236 38.02682 1500 ft 114 kts 301°
2026-04-19 13:44 55.89633 38.01551 1953 ft 105 kts 300°
2026-04-19 13:44 55.90242 38.00002 2133 ft 125 kts 302°
2026-04-19 13:44 55.90568 37.99107 2062 ft 128 kts 299°
2026-04-19 13:44 55.90948 37.97773 2081 ft 130 kts 305°
2026-04-19 13:45 55.91406 37.97072 2008 ft 134 kts 330°